TimeCDT,TemperatureF,Dew PointF,Humidity,Sea Level PressureIn,VisibilityMPH,Wind Direction,Wind SpeedMPH,Gust SpeedMPH,PrecipitationIn,Events,Conditions,WindDirDegrees,DateUTC
12:15 AM,73.4,69.8,88,30.23,10.0,Calm,Calm,-,N/A,,Clear,0,2013-07-18 05:15:00
12:35 AM,73.4,69.8,88,30.23,10.0,Calm,Calm,-,N/A,,Clear,0,2013-07-18 05:35:00
12:55 AM,73.4,69.8,88,30.23,10.0,Calm,Calm,-,N/A,,Clear,0,2013-07-18 05:55:00
1:15 AM,73.4,71.6,94,30.23,10.0,Calm,Calm,-,N/A,,Clear,0,2013-07-18 06:15:00
1:35 AM,73.4,71.6,94,30.23,10.0,Calm,Calm,-,N/A,,Clear,0,2013-07-18 06:35:00
1:55 AM,71.6,71.6,100,30.23,10.0,Calm,Calm,-,N/A,,Clear,0,2013-07-18 06:55:00
2:15 AM,71.6,71.6,100,30.22,10.0,Calm,Calm,-,N/A,,Clear,0,2013-07-18 07:15:00
2:35 AM,71.6,71.6,100,30.22,10.0,Calm,Calm,-,N/A,,Clear,0,2013-07-18 07:35:00
2:55 AM,71.6,71.6,100,30.21,10.0,Calm,Calm,-,N/A,,Clear,0,2013-07-18 07:55:00
3:15 AM,71.6,71.6,100,30.21,10.0,Calm,Calm,-,N/A,,Clear,0,2013-07-18 08:15:00
3:35 AM,71.6,71.6,100,30.21,10.0,Calm,Calm,-,N/A,,Clear,0,2013-07-18 08:35:00
3:55 AM,69.8,69.8,100,30.20,10.0,Calm,Calm,-,N/A,,Clear,0,2013-07-18 08:55:00
4:15 AM,69.8,69.8,100,30.20,7.0,Calm,Calm,-,N/A,,Clear,0,2013-07-18 09:15:00
4:35 AM,69.8,69.8,100,30.20,10.0,Calm,Calm,-,N/A,,Clear,0,2013-07-18 09:35:00
4:55 AM,69.8,69.8,100,30.20,10.0,Calm,Calm,-,N/A,,Clear,0,2013-07-18 09:55:00
5:15 AM,69.8,69.8,100,30.20,10.0,Calm,Calm,-,N/A,,Clear,0,2013-07-18 10:15:00
5:35 AM,69.8,69.8,100,30.20,7.0,Calm,Calm,-,N/A,,Clear,0,2013-07-18 10:35:00
5:55 AM,69.8,69.8,100,30.21,10.0,Calm,Calm,-,N/A,,Clear,0,2013-07-18 10:55:00
6:15 AM,69.8,69.8,100,30.21,10.0,Calm,Calm,-,N/A,,Clear,0,2013-07-18 11:15:00
6:35 AM,69.8,69.8,100,30.21,10.0,Calm,Calm,-,N/A,,Clear,0,2013-07-18 11:35:00
6:55 AM,69.8,69.8,100,30.22,10.0,Calm,Calm,-,N/A,,Clear,0,2013-07-18 11:55:00
7:15 AM,71.6,71.6,100,30.22,10.0,Calm,Calm,-,N/A,,Clear,0,2013-07-18 12:15:00
7:35 AM,71.6,71.6,100,30.23,10.0,Calm,Calm,-,N/A,,Clear,0,2013-07-18 12:35:00
7:55 AM,73.4,73.4,100,30.22,10.0,Calm,Calm,-,N/A,,Clear,0,2013-07-18 12:55:00
8:15 AM,77.0,71.6,83,30.22,10.0,Calm,Calm,-,N/A,,Clear,0,2013-07-18 13:15:00
8:35 AM,78.8,69.8,74,30.22,10.0,Calm,Calm,-,N/A,,Clear,0,2013-07-18 13:35:00
8:55 AM,80.6,69.8,70,30.22,10.0,Calm,Calm,-,N/A,,Clear,0,2013-07-18 13:55:00
9:15 AM,82.4,69.8,66,30.22,10.0,Calm,Calm,-,N/A,,Clear,0,2013-07-18 14:15:00
9:35 AM,86.0,69.8,58,30.22,10.0,Calm,Calm,-,N/A,,Clear,0,2013-07-18 14:35:00
9:55 AM,86.0,68.0,55,30.21,10.0,Calm,Calm,-,N/A,,Clear,0,2013-07-18 14:55:00
10:15 AM,87.8,68.0,52,30.21,10.0,Calm,Calm,-,N/A,,Clear,0,2013-07-18 15:15:00
10:35 AM,89.6,68.0,49,30.21,10.0,West,3.5,-,N/A,,Clear,260,2013-07-18 15:35:00
10:55 AM,89.6,68.0,49,30.21,10.0,West,3.5,-,N/A,,Clear,280,2013-07-18 15:55:00
11:15 AM,91.4,68.0,46,30.20,10.0,WNW,4.6,-,N/A,,Clear,290,2013-07-18 16:15:00
11:35 AM,91.4,68.0,46,30.20,10.0,WSW,8.1,-,N/A,,Clear,250,2013-07-18 16:35:00
11:55 AM,91.4,68.0,46,30.20,10.0,West,3.5,-,N/A,,Clear,270,2013-07-18 16:55:00
12:15 PM,93.2,66.2,41,30.19,10.0,SSW,8.1,-,N/A,,Clear,210,2013-07-18 17:15:00
12:35 PM,91.4,66.2,43,30.18,10.0,West,8.1,-,N/A,,Clear,280,2013-07-18 17:35:00
12:55 PM,93.2,66.2,41,30.18,10.0,WNW,4.6,-,N/A,,Clear,300,2013-07-18 17:55:00
1:15 PM,95.0,64.4,36,30.17,10.0,WSW,4.6,-,N/A,,Clear,240,2013-07-18 18:15:00
1:35 PM,95.0,66.2,39,30.16,10.0,South,3.5,-,N/A,,Clear,190,2013-07-18 18:35:00
1:55 PM,95.0,66.2,39,30.15,10.0,WSW,6.9,-,N/A,,Scattered Clouds,250,2013-07-18 18:55:00
2:15 PM,95.0,66.2,39,30.14,10.0,WSW,5.8,-,N/A,,Scattered Clouds,240,2013-07-18 19:15:00
2:35 PM,95.0,64.4,36,30.13,10.0,WSW,5.8,-,N/A,,Scattered Clouds,250,2013-07-18 19:35:00
2:55 PM,95.0,66.2,39,30.12,10.0,SSW,6.9,-,N/A,,Scattered Clouds,210,2013-07-18 19:55:00
3:15 PM,95.0,66.2,39,30.11,10.0,West,5.8,-,N/A,,Scattered Clouds,280,2013-07-18 20:15:00
3:35 PM,96.8,64.4,34,30.10,10.0,SW,9.2,-,N/A,,Clear,220,2013-07-18 20:35:00
3:55 PM,96.8,64.4,34,30.09,10.0,SW,5.8,-,N/A,,Clear,220,2013-07-18 20:55:00
4:15 PM,96.8,64.4,34,30.08,10.0,WNW,6.9,-,N/A,,Clear,290,2013-07-18 21:15:00
5:15 PM,96.8,64.4,34,30.07,10.0,West,5.8,-,N/A,,Clear,280,2013-07-18 22:15:00
5:35 PM,96.8,62.6,32,30.06,10.0,WSW,8.1,-,N/A,,Scattered Clouds,240,2013-07-18 22:35:00
5:55 PM,95.0,62.6,34,30.06,10.0,West,5.8,-,N/A,,Clear,280,2013-07-18 22:55:00
6:15 PM,96.8,62.6,32,30.05,10.0,WSW,8.1,-,N/A,,Clear,250,2013-07-18 23:15:00
6:35 PM,95.0,62.6,34,30.04,10.0,WSW,5.8,-,N/A,,Clear,250,2013-07-18 23:35:00
6:55 PM,95.0,62.6,34,30.05,10.0,West,4.6,-,N/A,,Clear,260,2013-07-18 23:55:00
7:15 PM,95.0,62.6,34,30.05,10.0,West,3.5,-,N/A,,Clear,280,2013-07-19 00:15:00
7:35 PM,93.2,62.6,36,30.04,10.0,Calm,Calm,-,N/A,,Clear,0,2013-07-19 00:35:00
7:55 PM,91.4,62.6,38,30.05,10.0,Calm,Calm,-,N/A,,Clear,0,2013-07-19 00:55:00
8:15 PM,89.6,64.4,43,30.05,10.0,Calm,Calm,-,N/A,,Clear,0,2013-07-19 01:15:00
8:35 PM,87.8,66.2,49,30.05,10.0,Calm,Calm,-,N/A,,Clear,0,2013-07-19 01:35:00
8:55 PM,86.0,64.4,48,30.05,10.0,Calm,Calm,-,N/A,,Clear,0,2013-07-19 01:55:00
9:15 PM,84.2,68.0,58,30.05,10.0,Calm,Calm,-,N/A,,Clear,0,2013-07-19 02:15:00
9:35 PM,82.4,66.2,58,30.06,10.0,Calm,Calm,-,N/A,,Clear,0,2013-07-19 02:35:00
9:55 PM,82.4,64.4,54,30.06,10.0,Calm,Calm,-,N/A,,Clear,0,2013-07-19 02:55:00
10:15 PM,80.6,68.0,65,30.06,10.0,Calm,Calm,-,N/A,,Clear,0,2013-07-19 03:15:00
10:35 PM,80.6,68.0,65,30.06,10.0,Calm,Calm,-,N/A,,Clear,0,2013-07-19 03:35:00
10:55 PM,78.8,69.8,74,30.06,10.0,Calm,Calm,-,N/A,,Clear,0,2013-07-19 03:55:00
11:15 PM,77.0,69.8,78,30.06,10.0,Calm,Calm,-,N/A,,Clear,0,2013-07-19 04:15:00
11:35 PM,77.0,69.8,78,30.05,10.0,Calm,Calm,-,N/A,,Clear,0,2013-07-19 04:35:00
11:55 PM,77.0,69.8,78,30.05,10.0,Calm,Calm,-,N/A,,Clear,0,2013-07-19 04:55:00